Location: Knowlton
(51.2333°N, 1.2667°E)
Time: 10:44:58
(UTC+00:00)

COSMOS 2455 - Pass Details

Date: 18 April 2021
Orbit: 902 x 907 km, 67.1° (Epoch: 16 May)

Event Time Altitude Azimuth Distance (km) Brightness Sun altitude
Exits shadow 21:18:14 30° 113° (ESE) 1,576 3.6 -19.1°
Maximum altitude 21:18:22 30° 111° (ESE) 1,576 3.6 -19.1°
Drops below altitude 10° 21:23:28 10° 52° (NE) 2,598 5.2 -19.6°
Sets 21:26:16 0° 42° (NE) 3,545 6.1 -19.9°
